Time,TemperatureF,DewpointF,PressureIn,WindDirection,WindDirectionDegrees,WindSpeedMPH,WindSpeedGustMPH,Humidity,HourlyPrecipIn,Conditions,Clouds,dailyrainin,SoftwareType,DateUTC
2013-07-09 00:02:00,60.6,58.6,29.81,SSW,202,4.4,4.7,93,0.09,RA,,0.00,WeatherDisplay:10.37,2013-07-09 06:02:00,
2013-07-09 00:07:00,60.3,58.3,29.81,SE,135,5.8,6.8,93,0.07,RA,,0.00,WeatherDisplay:10.37,2013-07-09 06:07:00,
2013-07-09 00:12:00,60.3,58.0,29.81,South,180,4.6,5.8,92,0.05,SCT,,0.00,WeatherDisplay:10.37,2013-07-09 06:12:00,
2013-07-09 00:17:00,59.9,57.6,29.80,South,180,7.2,9.4,92,0.04,SCT,,0.00,WeatherDisplay:10.37,2013-07-09 06:17:00,
2013-07-09 00:22:00,59.9,57.6,29.80,South,180,6.7,9.2,92,0.03,SCT,,0.00,WeatherDisplay:10.37,2013-07-09 06:22:00,
2013-07-09 00:27:00,59.9,57.6,29.83,SSE,158,4.4,6.9,92,0.01,SCT,,0.00,WeatherDisplay:10.37,2013-07-09 06:27:00,
2013-07-09 00:32:00,59.9,57.3,29.83,SSE,158,4.2,5.8,91,0.01,SCT,,0.00,WeatherDisplay:10.37,2013-07-09 06:32:00,
2013-07-09 00:37:00,59.7,57.1,29.83,SW,225,2.1,3.5,91,0.00,SCT,,0.00,WeatherDisplay:10.37,2013-07-09 06:37:00,
2013-07-09 00:42:00,59.5,56.9,29.84,SSW,202,2.0,2.3,91,0.00,SCT,,0.00,WeatherDisplay:10.37,2013-07-09 06:42:00,
2013-07-09 00:47:00,59.4,57.1,29.84,SW,225,2.1,2.3,92,0.00,SCT,,0.00,WeatherDisplay:10.37,2013-07-09 06:47:00,
2013-07-09 00:52:00,59.2,56.9,29.86,West,270,2.0,2.2,92,0.00,SCT,,0.00,WeatherDisplay:10.37,2013-07-09 06:52:00,
2013-07-09 00:58:00,59.2,56.9,29.86,West,270,0.0,0.0,92,0.00,SCT,,0.00,WeatherDisplay:10.37,2013-07-09 06:58:00,
2013-07-09 01:03:00,58.8,56.5,29.87,SW,225,0.5,2.2,92,0.00,SCT,,0.00,WeatherDisplay:10.37,2013-07-09 07:03:00,
2013-07-09 01:08:00,58.8,56.5,29.87,WNW,292,1.6,2.7,92,0.00,SCT,,0.00,WeatherDisplay:10.37,2013-07-09 07:08:00,
2013-07-09 01:13:00,58.8,56.5,29.87,SW,225,3.2,3.7,92,0.00,CLR,,0.00,WeatherDisplay:10.37,2013-07-09 07:13:00,
2013-07-09 01:18:00,59.0,57.0,29.88,NNW,338,1.3,2.7,93,0.00,CLR,,0.00,WeatherDisplay:10.37,2013-07-09 07:18:00,
2013-07-09 01:23:00,58.6,56.6,29.88,West,270,2.2,3.2,93,0.00,CLR,,0.00,WeatherDisplay:10.37,2013-07-09 07:23:00,
2013-07-09 01:28:00,58.6,56.6,29.89,SW,225,3.4,4.6,93,0.00,CLR,,0.00,WeatherDisplay:10.37,2013-07-09 07:28:00,
2013-07-09 01:33:00,58.6,56.6,29.89,WSW,248,1.6,3.5,93,0.00,CLR,,0.00,WeatherDisplay:10.37,2013-07-09 07:33:00,
2013-07-09 01:38:00,58.6,56.6,29.89,SW,225,2.5,3.5,93,0.00,CLR,,0.00,WeatherDisplay:10.37,2013-07-09 07:38:00,
2013-07-09 01:43:00,58.6,56.6,29.89,North,360,3.2,4.6,93,0.00,CLR,,0.00,WeatherDisplay:10.37,2013-07-09 07:43:00,
2013-07-09 01:48:00,58.6,56.6,29.89,NW,315,3.5,4.6,93,0.00,CLR,,0.00,WeatherDisplay:10.37,2013-07-09 07:48:00,
2013-07-09 01:53:00,58.6,56.3,29.90,SW,225,3.9,4.6,92,0.00,CLR,,0.00,WeatherDisplay:10.37,2013-07-09 07:53:00,
2013-07-09 01:58:00,58.6,56.3,29.90,NNW,338,2.7,3.5,92,0.00,CLR,,0.00,WeatherDisplay:10.37,2013-07-09 07:58:00,
2013-07-09 02:03:00,58.6,56.3,29.90,WSW,248,2.7,2.7,92,0.00,CLR,,0.00,WeatherDisplay:10.37,2013-07-09 08:03:00,
2013-07-09 02:08:00,59.0,56.7,29.90,ENE,68,2.1,2.3,92,0.00,CLR,,0.00,WeatherDisplay:10.37,2013-07-09 08:08:00,
2013-07-09 02:13:00,58.6,56.3,29.90,WNW,292,2.6,3.5,92,0.00,CLR,,0.00,WeatherDisplay:10.37,2013-07-09 08:13:00,
2013-07-09 02:18:00,58.5,56.2,29.89,NNE,22,1.5,2.7,92,0.00,CLR,,0.00,WeatherDisplay:10.37,2013-07-09 08:18:00,
2013-07-09 02:23:00,58.3,56.0,29.89,WSW,248,0.9,1.1,92,0.00,CLR,,0.00,WeatherDisplay:10.37,2013-07-09 08:23:00,
2013-07-09 02:28:00,58.3,56.0,29.89,NW,315,0.9,2.3,92,0.00,CLR,,0.00,WeatherDisplay:10.37,2013-07-09 08:28:00,
2013-07-09 02:33:00,58.1,56.1,29.89,NNW,338,1.3,1.3,93,0.00,CLR,,0.00,WeatherDisplay:10.37,2013-07-09 08:33:00,
2013-07-09 02:38:00,58.1,56.1,29.89,WSW,248,1.9,2.3,93,0.00,CLR,,0.00,WeatherDisplay:10.37,2013-07-09 08:38:00,
2013-07-09 02:43:00,58.1,56.1,29.89,West,270,1.0,1.7,93,0.00,CLR,,0.00,WeatherDisplay:10.37,2013-07-09 08:43:00,
2013-07-09 02:48:00,57.7,55.7,29.89,WNW,292,1.7,2.3,93,0.00,CLR,,0.00,WeatherDisplay:10.37,2013-07-09 08:48:00,
2013-07-09 02:53:00,57.7,56.0,29.90,WNW,292,1.7,2.2,94,0.00,CLR,,0.00,WeatherDisplay:10.37,2013-07-09 08:53:00,
2013-07-09 02:58:00,57.7,56.0,29.90,NE,45,2.8,3.5,94,0.00,CLR,,0.00,WeatherDisplay:10.37,2013-07-09 08:58:00,
2013-07-09 03:03:00,57.6,55.9,29.94,WSW,248,2.2,2.3,94,0.00,CLR,,0.00,WeatherDisplay:10.37,2013-07-09 09:03:00,
2013-07-09 03:08:00,57.7,56.0,29.94,NW,315,2.3,2.3,94,0.00,CLR,,0.00,WeatherDisplay:10.37,2013-07-09 09:08:00,
2013-07-09 03:13:00,57.7,56.0,29.94,NW,315,1.6,3.2,94,0.00,CLR,,0.00,WeatherDisplay:10.37,2013-07-09 09:13:00,
2013-07-09 03:18:00,57.7,55.7,29.93,SSW,202,1.2,1.2,93,0.00,CLR,,0.00,WeatherDisplay:10.37,2013-07-09 09:18:00,
2013-07-09 03:23:00,57.7,55.7,29.93,West,270,2.6,4.6,93,0.00,CLR,,0.00,WeatherDisplay:10.37,2013-07-09 09:23:00,
2013-07-09 03:28:00,57.6,55.6,29.93,WSW,248,1.0,1.1,93,0.00,CLR,,0.00,WeatherDisplay:10.37,2013-07-09 09:28:00,
2013-07-09 03:33:00,57.4,55.4,29.93,SW,225,2.2,2.7,93,0.00,CLR,,0.00,WeatherDisplay:10.37,2013-07-09 09:33:00,
2013-07-09 03:38:00,57.4,55.4,29.93,WSW,248,3.1,3.5,93,0.00,CLR,,0.00,WeatherDisplay:10.37,2013-07-09 09:38:00,
2013-07-09 03:43:00,57.4,55.4,29.93,West,270,0.8,1.1,93,0.00,CLR,,0.00,WeatherDisplay:10.37,2013-07-09 09:43:00,
2013-07-09 03:48:00,57.2,55.2,29.93,West,270,0.3,1.1,93,0.00,CLR,,0.00,WeatherDisplay:10.37,2013-07-09 09:48:00,
2013-07-09 03:53:00,57.0,55.3,29.93,NNW,338,0.0,0.0,94,0.00,CLR,,0.00,WeatherDisplay:10.37,2013-07-09 09:53:00,
2013-07-09 03:58:00,56.8,55.1,29.93,NNW,338,0.9,1.1,94,0.00,CLR,,0.00,WeatherDisplay:10.37,2013-07-09 09:58:00,
2013-07-09 04:03:00,56.8,55.1,29.93,WNW,292,1.2,1.2,94,0.00,CLR,,0.00,WeatherDisplay:10.37,2013-07-09 10:03:00,
2013-07-09 04:08:00,56.8,55.4,29.93,SW,225,2.3,2.3,95,0.00,CLR,,0.00,WeatherDisplay:10.37,2013-07-09 10:08:00,
2013-07-09 04:13:00,57.0,55.6,29.93,WSW,248,4.4,5.8,95,0.00,FEW,,0.00,WeatherDisplay:10.37,2013-07-09 10:13:00,
2013-07-09 04:18:00,57.4,56.0,29.93,NW,315,2.5,6.9,95,0.00,FEW,,0.00,WeatherDisplay:10.37,2013-07-09 10:18:00,
2013-07-09 04:23:00,57.6,56.2,29.93,NNW,338,3.1,3.5,95,0.00,FEW,,0.00,WeatherDisplay:10.37,2013-07-09 10:23:00,
2013-07-09 04:28:00,58.1,56.7,29.94,WSW,248,3.2,4.6,95,0.00,FEW,,0.00,WeatherDisplay:10.37,2013-07-09 10:28:00,
2013-07-09 04:33:00,58.3,56.6,29.94,SW,225,4.2,4.6,94,0.00,BKN,,0.00,WeatherDisplay:10.37,2013-07-09 10:33:00,
2013-07-09 04:38:00,58.5,56.8,29.94,SW,225,4.3,4.6,94,0.00,BKN,,0.00,WeatherDisplay:10.37,2013-07-09 10:38:00,
2013-07-09 04:43:00,58.8,57.1,29.94,SW,225,2.7,5.8,94,0.00,BKN,,0.00,WeatherDisplay:10.37,2013-07-09 10:43:00,
2013-07-09 04:48:00,59.2,57.2,29.94,West,270,4.0,4.7,93,0.00,BKN,,0.00,WeatherDisplay:10.37,2013-07-09 10:48:00,
2013-07-09 04:53:00,59.2,57.2,29.94,West,270,4.2,4.6,93,0.00,BKN,,0.00,WeatherDisplay:10.37,2013-07-09 10:53:00,
2013-07-09 04:58:00,59.4,57.4,29.94,NE,45,3.3,4.6,93,0.01,RA,,0.01,WeatherDisplay:10.37,2013-07-09 10:58:00,
2013-07-09 05:04:00,59.5,57.5,29.95,West,270,2.4,4.6,93,0.01,RA,,0.01,WeatherDisplay:10.37,2013-07-09 11:04:00,
2013-07-09 05:09:00,59.9,57.9,29.95,West,270,2.3,5.8,93,0.01,BKN,,0.01,WeatherDisplay:10.37,2013-07-09 11:09:00,
2013-07-09 05:14:00,60.1,58.4,29.95,WSW,248,3.7,4.6,94,0.01,OVC,,0.01,WeatherDisplay:10.37,2013-07-09 11:14:00,
2013-07-09 05:19:00,60.1,58.4,29.95,WSW,248,3.9,4.6,94,0.01,OVC,,0.01,WeatherDisplay:10.37,2013-07-09 11:19:00,
2013-07-09 05:24:00,60.1,58.4,29.95,West,270,3.3,3.3,94,0.01,OVC,,0.01,WeatherDisplay:10.37,2013-07-09 11:24:00,
2013-07-09 05:29:00,60.4,58.7,29.96,West,270,2.5,3.5,94,0.01,OVC,,0.01,WeatherDisplay:10.37,2013-07-09 11:29:00,
2013-07-09 05:34:00,60.6,58.9,29.96,WNW,292,3.3,4.6,94,0.01,OVC,,0.01,WeatherDisplay:10.37,2013-07-09 11:34:00,
2013-07-09 05:39:00,60.6,58.9,29.97,NE,45,4.6,5.8,94,0.01,OVC,,0.01,WeatherDisplay:10.37,2013-07-09 11:39:00,
2013-07-09 05:44:00,60.6,58.9,29.97,WSW,248,4.8,4.8,94,0.01,OVC,,0.01,WeatherDisplay:10.37,2013-07-09 11:44:00,
2013-07-09 05:49:00,60.8,59.1,29.97,West,270,3.8,5.8,94,0.01,OVC,,0.01,WeatherDisplay:10.37,2013-07-09 11:49:00,
2013-07-09 05:54:00,60.8,59.1,29.97,WNW,292,1.6,2.3,94,0.01,OVC,,0.01,WeatherDisplay:10.37,2013-07-09 11:54:00,
2013-07-09 05:59:00,60.8,59.1,29.97,WSW,248,2.5,4.6,94,0.00,OVC,,0.01,WeatherDisplay:10.37,2013-07-09 11:59:00,
2013-07-09 06:04:00,61.2,59.5,29.97,West,270,1.5,2.3,94,0.00,OVC,,0.01,WeatherDisplay:10.37,2013-07-09 12:04:00,
2013-07-09 06:09:00,61.2,59.2,29.97,WNW,292,3.0,3.5,93,0.00,OVC,,0.01,WeatherDisplay:10.37,2013-07-09 12:09:00,
2013-07-09 06:14:00,61.3,59.3,29.97,SW,225,2.6,3.5,93,0.00,OVC,,0.01,WeatherDisplay:10.37,2013-07-09 12:14:00,
2013-07-09 06:19:00,61.5,59.5,29.97,NW,315,2.8,4.6,93,0.00,OVC,,0.01,WeatherDisplay:10.37,2013-07-09 12:19:00,
2013-07-09 06:24:00,61.7,59.7,29.97,South,180,2.5,2.7,93,0.00,OVC,,0.01,WeatherDisplay:10.37,2013-07-09 12:24:00,
2013-07-09 06:29:00,61.9,59.5,29.97,WNW,292,3.7,4.6,92,0.00,OVC,,0.01,WeatherDisplay:10.37,2013-07-09 12:29:00,
2013-07-09 06:34:00,62.1,59.4,29.97,WNW,292,3.6,3.7,91,0.00,OVC,,0.01,WeatherDisplay:10.37,2013-07-09 12:34:00,
2013-07-09 06:39:00,62.2,59.5,29.97,NNW,338,3.7,7.8,91,0.00,OVC,,0.01,WeatherDisplay:10.37,2013-07-09 12:39:00,
2013-07-09 06:44:00,62.2,59.5,29.97,NNE,22,1.9,2.3,91,0.00,OVC,,0.01,WeatherDisplay:10.37,2013-07-09 12:44:00,
2013-07-09 06:49:00,62.4,59.7,29.97,NE,45,1.2,2.2,91,0.00,OVC,,0.01,WeatherDisplay:10.37,2013-07-09 12:49:00,
2013-07-09 06:54:00,62.4,59.7,29.98,NNW,338,2.0,6.8,91,0.00,OVC,,0.01,WeatherDisplay:10.37,2013-07-09 12:54:00,
2013-07-09 06:59:00,62.4,59.7,29.98,NNE,22,2.4,2.7,91,0.00,OVC,,0.01,WeatherDisplay:10.37,2013-07-09 12:59:00,
2013-07-09 07:04:00,62.4,59.7,29.99,West,270,2.9,3.5,91,0.00,OVC,,0.01,WeatherDisplay:10.37,2013-07-09 13:04:00,
2013-07-09 07:09:00,62.4,59.7,29.99,WSW,248,3.1,6.8,91,0.00,OVC,,0.01,WeatherDisplay:10.37,2013-07-09 13:09:00,
2013-07-09 07:14:00,62.6,59.9,29.99,West,270,3.1,4.6,91,0.00,OVC,,0.01,WeatherDisplay:10.37,2013-07-09 13:14:00,
2013-07-09 07:19:00,62.8,59.8,29.99,NNW,338,3.9,5.8,90,0.00,OVC,,0.01,WeatherDisplay:10.37,2013-07-09 13:19:00,
2013-07-09 07:24:00,62.8,59.8,29.99,SW,225,2.6,4.6,90,0.00,OVC,,0.01,WeatherDisplay:10.37,2013-07-09 13:24:00,
2013-07-09 07:29:00,63.0,60.0,29.99,West,270,1.7,2.3,90,0.00,OVC,,0.01,WeatherDisplay:10.37,2013-07-09 13:29:00,
2013-07-09 07:34:00,63.1,60.1,29.99,South,180,1.4,2.3,90,0.00,OVC,,0.01,WeatherDisplay:10.37,2013-07-09 13:34:00,
2013-07-09 07:39:00,63.1,60.1,30.00,NW,315,3.6,5.8,90,0.00,OVC,,0.01,WeatherDisplay:10.37,2013-07-09 13:39:00,
2013-07-09 07:44:00,63.3,60.0,30.00,NW,315,3.7,5.8,89,0.00,OVC,,0.01,WeatherDisplay:10.37,2013-07-09 13:44:00,
2013-07-09 07:49:00,63.9,60.0,30.00,NW,315,4.8,5.8,87,0.00,OVC,,0.01,WeatherDisplay:10.37,2013-07-09 13:49:00,
2013-07-09 07:54:00,64.0,60.1,30.00,NNW,338,3.7,6.9,87,0.00,OVC,,0.01,WeatherDisplay:10.37,2013-07-09 13:54:00,
2013-07-09 07:59:00,64.8,60.5,30.00,West,270,3.8,5.3,86,0.00,OVC,,0.01,WeatherDisplay:10.37,2013-07-09 13:59:00,
2013-07-09 08:04:00,65.3,60.7,30.00,ENE,68,2.5,3.5,85,0.00,OVC,,0.01,WeatherDisplay:10.37,2013-07-09 14:04:00,
2013-07-09 08:09:00,66.4,60.7,30.00,WNW,292,3.6,4.2,82,0.00,OVC,,0.01,WeatherDisplay:10.37,2013-07-09 14:09:00,
2013-07-09 08:14:00,65.3,60.0,30.00,NNW,338,5.5,7.8,83,0.00,OVC,,0.01,WeatherDisplay:10.37,2013-07-09 14:14:00,
2013-07-09 08:19:00,65.8,59.8,30.00,WNW,292,4.7,5.8,81,0.00,OVC,,0.01,WeatherDisplay:10.37,2013-07-09 14:19:00,
2013-07-09 08:24:00,66.0,60.3,30.00,NW,315,3.5,5.3,82,0.00,OVC,,0.01,WeatherDisplay:10.37,2013-07-09 14:24:00,
2013-07-09 08:29:00,65.7,59.7,30.00,West,270,4.7,5.8,81,0.00,OVC,,0.01,WeatherDisplay:10.37,2013-07-09 14:29:00,
2013-07-09 08:34:00,66.0,60.3,30.00,West,270,2.7,3.5,82,0.00,SCT,,0.01,WeatherDisplay:10.37,2013-07-09 14:34:00,
2013-07-09 08:39:00,66.6,60.6,30.00,NW,315,2.8,3.7,81,0.00,SCT,,0.01,WeatherDisplay:10.37,2013-07-09 14:39:00,
2013-07-09 08:44:00,66.7,60.3,30.00,WSW,248,3.2,4.6,80,0.00,SCT,,0.01,WeatherDisplay:10.37,2013-07-09 14:44:00,
2013-07-09 08:49:00,66.0,59.7,30.00,West,270,3.8,5.8,80,0.00,SCT,,0.01,WeatherDisplay:10.37,2013-07-09 14:49:00,
2013-07-09 08:54:00,66.4,60.0,30.00,NW,315,2.5,8.1,80,0.00,SCT,,0.01,WeatherDisplay:10.37,2013-07-09 14:54:00,
2013-07-09 08:59:00,66.4,59.7,30.00,NNW,338,3.6,4.7,79,0.00,SCT,,0.01,WeatherDisplay:10.37,2013-07-09 14:59:00,
2013-07-09 09:04:00,66.4,59.7,30.01,NNW,338,3.3,5.8,79,0.00,SCT,,0.01,WeatherDisplay:10.37,2013-07-09 15:04:00,
2013-07-09 09:09:00,66.9,59.8,30.01,NNW,338,3.0,4.2,78,0.00,SCT,,0.01,WeatherDisplay:10.37,2013-07-09 15:09:00,
2013-07-09 09:14:00,67.8,60.3,30.01,SW,225,4.1,6.3,77,0.00,FEW,,0.01,WeatherDisplay:10.37,2013-07-09 15:14:00,
2013-07-09 09:19:00,67.3,60.6,30.01,West,270,2.4,3.5,79,0.00,FEW,,0.01,WeatherDisplay:10.37,2013-07-09 15:19:00,
2013-07-09 09:24:00,68.7,60.8,30.01,WSW,248,3.0,3.5,76,0.00,FEW,,0.01,WeatherDisplay:10.37,2013-07-09 15:24:00,
2013-07-09 09:29:00,68.5,60.6,30.01,WSW,248,4.3,6.9,76,0.00,FEW,,0.01,WeatherDisplay:10.37,2013-07-09 15:29:00,
2013-07-09 09:34:00,68.5,60.3,30.01,West,270,3.5,6.9,75,0.00,FEW,,0.01,WeatherDisplay:10.37,2013-07-09 15:34:00,
2013-07-09 09:39:00,68.2,60.3,30.01,West,270,5.1,5.8,76,0.00,FEW,,0.01,WeatherDisplay:10.37,2013-07-09 15:39:00,
2013-07-09 09:44:00,68.5,59.9,30.01,NW,315,4.1,8.1,74,0.00,FEW,,0.01,WeatherDisplay:10.37,2013-07-09 15:44:00,
2013-07-09 09:49:00,69.4,60.8,30.01,North,360,4.5,6.9,74,0.00,FEW,,0.01,WeatherDisplay:10.37,2013-07-09 15:49:00,
2013-07-09 09:54:00,68.9,60.6,30.01,WNW,292,3.4,4.6,75,0.00,FEW,,0.01,WeatherDisplay:10.37,2013-07-09 15:54:00,
2013-07-09 09:59:00,68.9,59.9,30.01,North,360,4.1,5.8,73,0.00,FEW,,0.01,WeatherDisplay:10.37,2013-07-09 15:59:00,
2013-07-09 10:04:00,69.6,60.6,30.01,WNW,292,4.0,5.8,73,0.00,FEW,,0.01,WeatherDisplay:10.37,2013-07-09 16:04:00,
2013-07-09 10:10:00,69.3,59.5,30.01,NNW,338,4.6,5.8,71,0.00,FEW,,0.01,WeatherDisplay:10.37,2013-07-09 16:10:00,
2013-07-09 10:15:00,69.8,60.4,30.01,NNW,338,3.6,5.8,72,0.00,FEW,,0.01,WeatherDisplay:10.37,2013-07-09 16:15:00,
2013-07-09 10:20:00,69.8,59.6,30.01,WSW,248,3.7,10.4,70,0.00,FEW,,0.01,WeatherDisplay:10.37,2013-07-09 16:20:00,
2013-07-09 10:25:00,70.2,60.7,30.01,WNW,292,2.8,6.9,72,0.00,FEW,,0.01,WeatherDisplay:10.37,2013-07-09 16:25:00,
2013-07-09 10:30:00,70.5,60.2,30.01,SSE,158,2.2,4.6,70,0.00,FEW,,0.01,WeatherDisplay:10.37,2013-07-09 16:30:00,
2013-07-09 10:35:00,70.7,59.2,30.01,NW,315,4.9,9.2,67,0.00,FEW,,0.01,WeatherDisplay:10.37,2013-07-09 16:35:00,
2013-07-09 10:40:00,71.4,60.3,30.01,West,270,4.4,8.1,68,0.00,FEW,,0.01,WeatherDisplay:10.37,2013-07-09 16:40:00,
2013-07-09 10:45:00,71.4,60.3,30.01,WNW,292,3.0,6.9,68,0.00,FEW,,0.01,WeatherDisplay:10.37,2013-07-09 16:45:00,
2013-07-09 10:50:00,71.2,58.8,30.01,WNW,292,4.6,11.5,65,0.00,FEW,,0.01,WeatherDisplay:10.37,2013-07-09 16:50:00,
2013-07-09 10:55:00,72.0,59.6,30.01,SE,135,4.7,9.2,65,0.00,FEW,,0.01,WeatherDisplay:10.37,2013-07-09 16:55:00,
2013-07-09 11:00:00,71.6,59.6,30.01,West,270,5.2,5.8,66,0.00,FEW,,0.01,WeatherDisplay:10.37,2013-07-09 17:00:00,
2013-07-09 11:05:00,71.8,60.2,30.01,West,270,3.6,5.8,67,0.00,FEW,,0.01,WeatherDisplay:10.37,2013-07-09 17:05:00,
2013-07-09 11:10:00,71.8,59.0,30.01,NNE,22,5.9,8.1,64,0.00,FEW,,0.01,WeatherDisplay:10.37,2013-07-09 17:10:00,
2013-07-09 11:15:00,72.0,58.7,30.01,SW,225,4.8,8.1,63,0.00,BKN,,0.01,WeatherDisplay:10.37,2013-07-09 17:15:00,
2013-07-09 11:20:00,72.7,58.9,30.01,SSE,158,4.1,4.7,62,0.00,BKN,,0.01,WeatherDisplay:10.37,2013-07-09 17:20:00,
2013-07-09 11:25:00,73.2,59.8,30.01,WNW,292,6.3,9.2,63,0.00,BKN,,0.01,WeatherDisplay:10.37,2013-07-09 17:25:00,
2013-07-09 11:30:00,73.2,58.9,30.01,SSW,202,3.9,4.7,61,0.00,BKN,,0.01,WeatherDisplay:10.37,2013-07-09 17:30:00,
2013-07-09 11:35:00,73.0,58.8,30.01,West,270,4.8,6.9,61,0.00,BKN,,0.01,WeatherDisplay:10.37,2013-07-09 17:35:00,
2013-07-09 11:40:00,73.0,58.3,30.01,NNE,22,6.8,8.1,60,0.00,BKN,,0.01,WeatherDisplay:10.37,2013-07-09 17:40:00,
2013-07-09 11:45:00,72.9,58.2,30.01,West,270,4.2,5.8,60,0.00,BKN,,0.01,WeatherDisplay:10.37,2013-07-09 17:45:00,
2013-07-09 11:50:00,74.3,59.0,30.01,South,180,5.1,5.8,59,0.00,BKN,,0.01,WeatherDisplay:10.37,2013-07-09 17:50:00,
2013-07-09 11:55:00,74.5,59.2,30.01,South,180,5.2,6.9,59,0.00,BKN,,0.01,WeatherDisplay:10.37,2013-07-09 17:55:00,
2013-07-09 12:00:00,73.6,57.4,30.01,WNW,292,6.3,8.1,57,0.00,BKN,,0.01,WeatherDisplay:10.37,2013-07-09 18:00:00,
2013-07-09 12:05:00,73.8,59.0,30.02,WNW,292,5.6,9.2,60,0.00,BKN,,0.01,WeatherDisplay:10.37,2013-07-09 18:05:00,
2013-07-09 12:10:00,73.9,57.7,30.02,North,360,6.4,12.7,57,0.00,BKN,,0.01,WeatherDisplay:10.37,2013-07-09 18:10:00,
2013-07-09 12:15:00,73.2,57.5,30.02,SW,225,7.1,9.2,58,0.00,CLR,,0.01,WeatherDisplay:10.37,2013-07-09 18:15:00,
2013-07-09 12:20:00,73.4,56.2,30.02,West,270,5.1,5.8,55,0.00,CLR,,0.01,WeatherDisplay:10.37,2013-07-09 18:20:00,
2013-07-09 12:25:00,73.9,57.7,30.02,West,270,8.1,9.2,57,0.00,CLR,,0.01,WeatherDisplay:10.37,2013-07-09 18:25:00,
2013-07-09 12:30:00,74.3,57.6,30.02,West,270,6.3,10.4,56,0.00,CLR,,0.01,WeatherDisplay:10.37,2013-07-09 18:30:00,
2013-07-09 12:35:00,75.2,58.4,30.02,NE,45,4.8,11.5,56,0.00,CLR,,0.01,WeatherDisplay:10.37,2013-07-09 18:35:00,
2013-07-09 12:40:00,74.1,57.4,30.02,NNW,338,6.5,9.2,56,0.00,CLR,,0.01,WeatherDisplay:10.37,2013-07-09 18:40:00,
2013-07-09 12:45:00,74.8,58.1,30.02,WNW,292,5.1,5.8,56,0.00,CLR,,0.01,WeatherDisplay:10.37,2013-07-09 18:45:00,
2013-07-09 12:50:00,74.8,58.1,30.02,West,270,5.9,8.1,56,0.00,CLR,,0.01,WeatherDisplay:10.37,2013-07-09 18:50:00,
2013-07-09 12:55:00,75.6,57.3,30.02,West,270,4.8,12.7,53,0.00,CLR,,0.01,WeatherDisplay:10.37,2013-07-09 18:55:00,
2013-07-09 13:00:00,75.2,56.9,30.02,West,270,5.1,7.3,53,0.00,CLR,,0.01,WeatherDisplay:10.37,2013-07-09 19:00:00,
2013-07-09 13:05:00,75.9,59.1,30.02,NW,315,5.5,7.3,56,0.00,CLR,,0.01,WeatherDisplay:10.37,2013-07-09 19:05:00,
2013-07-09 13:10:00,75.4,57.6,30.02,WNW,292,7.2,7.2,54,0.00,CLR,,0.01,WeatherDisplay:10.37,2013-07-09 19:10:00,
2013-07-09 13:15:00,75.6,57.8,30.02,NNE,22,4.1,4.6,54,0.00,FEW,,0.01,WeatherDisplay:10.37,2013-07-09 19:15:00,
2013-07-09 13:20:00,75.9,57.5,30.02,WNW,292,6.0,8.1,53,0.00,FEW,,0.01,WeatherDisplay:10.37,2013-07-09 19:20:00,
2013-07-09 13:25:00,75.4,56.5,30.02,West,270,9.7,11.9,52,0.00,FEW,,0.01,WeatherDisplay:10.37,2013-07-09 19:25:00,
2013-07-09 13:30:00,74.8,56.5,30.02,West,270,6.1,9.2,53,0.00,FEW,,0.01,WeatherDisplay:10.37,2013-07-09 19:30:00,
2013-07-09 13:35:00,75.6,56.7,30.02,South,180,7.3,11.5,52,0.00,FEW,,0.01,WeatherDisplay:10.37,2013-07-09 19:35:00,
2013-07-09 13:40:00,75.7,56.8,30.02,WNW,292,8.0,9.2,52,0.00,FEW,,0.01,WeatherDisplay:10.37,2013-07-09 19:40:00,
2013-07-09 13:45:00,76.6,57.1,30.02,West,270,6.8,8.1,51,0.00,FEW,,0.01,WeatherDisplay:10.37,2013-07-09 19:45:00,
2013-07-09 13:50:00,76.3,57.4,30.02,SW,225,5.6,8.3,52,0.00,FEW,,0.01,WeatherDisplay:10.37,2013-07-09 19:50:00,
2013-07-09 13:55:00,75.0,55.6,30.02,ENE,68,7.1,10.4,51,0.00,FEW,,0.01,WeatherDisplay:10.37,2013-07-09 19:55:00,
2013-07-09 14:00:00,75.7,56.3,30.02,WSW,248,6.8,10.4,51,0.00,FEW,,0.01,WeatherDisplay:10.37,2013-07-09 20:00:00,
2013-07-09 14:05:00,75.7,56.3,30.02,WNW,292,7.0,10.4,51,0.00,FEW,,0.01,WeatherDisplay:10.37,2013-07-09 20:05:00,
2013-07-09 14:10:00,76.5,57.0,30.02,NNW,338,4.9,5.8,51,0.00,FEW,,0.01,WeatherDisplay:10.37,2013-07-09 20:10:00,
2013-07-09 14:15:00,76.8,57.3,30.02,WSW,248,8.6,11.9,51,0.00,FEW,,0.01,WeatherDisplay:10.37,2013-07-09 20:15:00,
2013-07-09 14:20:00,75.7,56.8,30.02,SSW,202,5.4,9.2,52,0.00,FEW,,0.01,WeatherDisplay:10.37,2013-07-09 20:20:00,
2013-07-09 14:25:00,76.1,56.7,30.02,NW,315,8.0,11.5,51,0.00,FEW,,0.01,WeatherDisplay:10.37,2013-07-09 20:25:00,
2013-07-09 14:30:00,74.8,56.0,30.02,WNW,292,6.6,11.5,52,0.00,FEW,,0.01,WeatherDisplay:10.37,2013-07-09 20:30:00,
2013-07-09 14:35:00,75.2,56.9,30.02,West,270,5.7,6.9,53,0.00,FEW,,0.01,WeatherDisplay:10.37,2013-07-09 20:35:00,
2013-07-09 14:40:00,76.3,57.9,30.02,WSW,248,3.7,5.8,53,0.00,FEW,,0.01,WeatherDisplay:10.37,2013-07-09 20:40:00,
2013-07-09 14:45:00,75.4,57.1,30.02,West,270,4.5,8.1,53,0.00,FEW,,0.01,WeatherDisplay:10.37,2013-07-09 20:45:00,
2013-07-09 14:50:00,75.4,57.1,30.02,West,270,6.3,6.8,53,0.00,FEW,,0.01,WeatherDisplay:10.37,2013-07-09 20:50:00,
2013-07-09 14:55:00,74.7,56.4,30.02,WSW,248,6.3,12.7,53,0.00,FEW,,0.01,WeatherDisplay:10.37,2013-07-09 20:55:00,
2013-07-09 15:00:00,75.2,56.9,30.02,NW,315,10.3,12.7,53,0.00,FEW,,0.01,WeatherDisplay:10.37,2013-07-09 21:00:00,
2013-07-09 15:05:00,74.8,58.1,30.03,WNW,292,3.3,9.2,56,0.00,FEW,,0.01,WeatherDisplay:10.37,2013-07-09 21:05:00,
2013-07-09 15:10:00,75.2,57.9,30.03,North,360,6.5,8.8,55,0.00,FEW,,0.01,WeatherDisplay:10.37,2013-07-09 21:10:00,
2013-07-09 15:15:00,74.8,58.1,30.03,West,270,6.2,6.9,56,0.00,SCT,,0.01,WeatherDisplay:10.37,2013-07-09 21:15:00,
2013-07-09 15:20:00,74.7,56.9,30.03,WSW,248,5.4,9.2,54,0.00,SCT,,0.01,WeatherDisplay:10.37,2013-07-09 21:20:00,
2013-07-09 15:25:00,74.7,55.9,30.03,WSW,248,6.9,12.7,52,0.00,SCT,,0.01,WeatherDisplay:10.37,2013-07-09 21:25:00,
2013-07-09 15:30:00,74.7,55.9,30.03,North,360,6.4,8.1,52,0.00,SCT,,0.01,WeatherDisplay:10.37,2013-07-09 21:30:00,
2013-07-09 15:35:00,74.7,55.9,30.03,West,270,6.8,10.4,52,0.00,SCT,,0.01,WeatherDisplay:10.37,2013-07-09 21:35:00,
2013-07-09 15:41:00,73.4,58.2,30.04,NW,315,4.7,4.7,59,0.00,SCT,,0.01,WeatherDisplay:10.37,2013-07-09 21:41:00,
2013-07-09 15:46:00,72.7,58.9,30.04,South,180,5.1,5.1,62,0.00,SCT,,0.01,WeatherDisplay:10.37,2013-07-09 21:46:00,
2013-07-09 15:51:00,72.9,59.6,30.04,WNW,292,4.2,6.9,63,0.00,SCT,,0.01,WeatherDisplay:10.37,2013-07-09 21:51:00,
2013-07-09 15:56:00,73.0,59.2,30.04,NNE,22,5.0,8.1,62,0.00,SCT,,0.01,WeatherDisplay:10.37,2013-07-09 21:56:00,
2013-07-09 16:01:00,73.9,59.6,30.04,East,90,7.0,13.0,61,0.00,SCT,,0.01,WeatherDisplay:10.37,2013-07-09 22:01:00,
2013-07-09 16:06:00,72.9,58.7,30.05,NNW,338,6.3,9.2,61,0.00,SCT,,0.01,WeatherDisplay:10.37,2013-07-09 22:06:00,
2013-07-09 16:11:00,72.5,58.7,30.05,WNW,292,6.5,6.9,62,0.00,SCT,,0.01,WeatherDisplay:10.37,2013-07-09 22:11:00,
2013-07-09 16:16:00,72.7,59.4,30.05,South,180,4.9,6.9,63,0.00,FEW,,0.01,WeatherDisplay:10.37,2013-07-09 22:16:00,
2013-07-09 16:21:00,72.5,59.6,30.05,SSW,202,3.4,5.8,64,0.00,FEW,,0.01,WeatherDisplay:10.37,2013-07-09 22:21:00,
2013-07-09 16:26:00,71.8,59.4,30.06,NNE,22,5.0,6.3,65,0.00,FEW,,0.01,WeatherDisplay:10.37,2013-07-09 22:26:00,
2013-07-09 16:31:00,73.0,60.5,30.06,WNW,292,4.2,5.8,65,0.00,SCT,,0.01,WeatherDisplay:10.37,2013-07-09 22:31:00,
2013-07-09 16:36:00,72.9,60.4,30.06,WNW,292,4.2,4.6,65,0.00,SCT,,0.01,WeatherDisplay:10.37,2013-07-09 22:36:00,
2013-07-09 16:41:00,71.8,59.0,30.06,ESE,112,3.7,4.6,64,0.00,SCT,,0.01,WeatherDisplay:10.37,2013-07-09 22:41:00,
2013-07-09 16:46:00,72.1,59.2,30.06,NE,45,5.1,6.9,64,0.00,SCT,,0.01,WeatherDisplay:10.37,2013-07-09 22:46:00,
2013-07-09 16:51:00,72.3,59.4,30.06,ENE,68,4.0,7.3,64,0.00,SCT,,0.01,WeatherDisplay:10.37,2013-07-09 22:51:00,
2013-07-09 16:56:00,72.3,58.5,30.06,South,180,3.7,5.8,62,0.00,SCT,,0.01,WeatherDisplay:10.37,2013-07-09 22:56:00,
2013-07-09 17:01:00,73.6,58.9,30.06,West,270,3.9,6.3,60,0.00,SCT,,0.01,WeatherDisplay:10.37,2013-07-09 23:01:00,
2013-07-09 17:06:00,73.9,58.7,30.06,NE,45,6.0,8.1,59,0.00,SCT,,0.01,WeatherDisplay:10.37,2013-07-09 23:06:00,
2013-07-09 17:11:00,72.5,59.6,30.06,NNE,22,3.8,4.6,64,0.00,BKN,,0.01,WeatherDisplay:10.37,2013-07-09 23:11:00,
2013-07-09 17:16:00,72.0,59.2,30.06,NE,45,5.6,6.9,64,0.00,BKN,,0.01,WeatherDisplay:10.37,2013-07-09 23:16:00,
2013-07-09 17:21:00,72.3,59.4,30.06,NE,45,2.0,4.6,64,0.00,BKN,,0.01,WeatherDisplay:10.37,2013-07-09 23:21:00,
2013-07-09 17:26:00,73.2,59.4,30.06,NE,45,4.2,5.8,62,0.00,BKN,,0.01,WeatherDisplay:10.37,2013-07-09 23:26:00,
2013-07-09 17:31:00,72.5,58.3,30.06,West,270,2.5,3.5,61,0.00,BKN,,0.01,WeatherDisplay:10.37,2013-07-09 23:31:00,
2013-07-09 17:36:00,72.1,58.8,30.06,WNW,292,4.5,6.3,63,0.00,BKN,,0.01,WeatherDisplay:10.37,2013-07-09 23:36:00,
2013-07-09 17:41:00,71.8,59.4,30.07,SSE,158,4.9,6.9,65,0.00,BKN,,0.01,WeatherDisplay:10.37,2013-07-09 23:41:00,
2013-07-09 17:46:00,72.0,59.2,30.07,NE,45,6.2,6.9,64,0.00,BKN,,0.01,WeatherDisplay:10.37,2013-07-09 23:46:00,
2013-07-09 17:51:00,71.4,59.0,30.06,East,90,4.1,6.9,65,0.00,BKN,,0.01,WeatherDisplay:10.37,2013-07-09 23:51:00,
2013-07-09 17:56:00,71.4,59.0,30.06,NE,45,4.3,5.3,65,0.00,BKN,,0.01,WeatherDisplay:10.37,2013-07-09 23:56:00,
2013-07-09 18:01:00,71.4,58.6,30.06,NNW,338,7.1,9.2,64,0.00,BKN,,0.01,WeatherDisplay:10.37,2013-07-10 00:01:00,
2013-07-09 18:06:00,71.6,59.2,30.07,North,360,1.9,2.7,65,0.00,BKN,,0.01,WeatherDisplay:10.37,2013-07-10 00:06:00,
2013-07-09 18:11:00,71.8,58.5,30.07,North,360,4.5,5.8,63,0.00,BKN,,0.01,WeatherDisplay:10.37,2013-07-10 00:11:00,
2013-07-09 18:16:00,71.6,57.4,30.07,NNE,22,5.7,6.8,61,0.00,BKN,,0.01,WeatherDisplay:10.37,2013-07-10 00:16:00,
2013-07-09 18:21:00,71.4,56.8,30.07,West,270,4.9,5.8,60,0.00,BKN,,0.01,WeatherDisplay:10.37,2013-07-10 00:21:00,
2013-07-09 18:26:00,71.4,56.8,30.07,NNW,338,5.2,6.9,60,0.00,BKN,,0.01,WeatherDisplay:10.37,2013-07-10 00:26:00,
2013-07-09 18:31:00,71.4,56.8,30.07,NE,45,4.7,5.8,60,0.00,BKN,,0.01,WeatherDisplay:10.37,2013-07-10 00:31:00,
2013-07-09 18:36:00,70.9,56.8,30.07,NNE,22,4.7,6.8,61,0.00,BKN,,0.01,WeatherDisplay:10.37,2013-07-10 00:36:00,
2013-07-09 18:41:00,70.3,56.7,30.07,ENE,68,5.4,6.9,62,0.00,BKN,,0.01,WeatherDisplay:10.37,2013-07-10 00:41:00,
2013-07-09 18:46:00,70.0,56.8,30.07,ESE,112,5.9,8.1,63,0.00,BKN,,0.01,WeatherDisplay:10.37,2013-07-10 00:46:00,
2013-07-09 18:51:00,70.0,56.8,30.07,NE,45,3.5,4.7,63,0.00,BKN,,0.01,WeatherDisplay:10.37,2013-07-10 00:51:00,
2013-07-09 18:56:00,70.3,56.7,30.07,ENE,68,4.0,5.8,62,0.00,BKN,,0.01,WeatherDisplay:10.37,2013-07-10 00:56:00,
2013-07-09 19:01:00,70.3,56.7,30.07,ESE,112,2.4,3.5,62,0.00,OVC,,0.01,WeatherDisplay:10.37,2013-07-10 01:01:00,
2013-07-09 19:06:00,70.7,56.6,30.07,NNE,22,4.7,4.7,61,0.00,OVC,,0.01,WeatherDisplay:10.37,2013-07-10 01:06:00,
2013-07-09 19:11:00,70.7,56.1,30.07,North,360,4.2,5.8,60,0.00,OVC,,0.01,WeatherDisplay:10.37,2013-07-10 01:11:00,
2013-07-09 19:16:00,70.5,55.9,30.07,East,90,3.5,6.8,60,0.00,OVC,,0.01,WeatherDisplay:10.37,2013-07-10 01:16:00,
2013-07-09 19:21:00,70.5,55.9,30.07,NE,45,2.3,3.5,60,0.00,OVC,,0.01,WeatherDisplay:10.37,2013-07-10 01:21:00,
2013-07-09 19:26:00,69.8,56.2,30.08,SE,135,3.2,4.7,62,0.00,OVC,,0.01,WeatherDisplay:10.37,2013-07-10 01:26:00,
2013-07-09 19:31:00,69.3,55.7,30.08,East,90,5.4,8.1,62,0.00,OVC,,0.01,WeatherDisplay:10.37,2013-07-10 01:31:00,
2013-07-09 19:36:00,68.9,55.8,30.08,ENE,68,5.3,6.9,63,0.00,OVC,,0.01,WeatherDisplay:10.37,2013-07-10 01:36:00,
2013-07-09 19:41:00,68.9,55.8,30.08,ENE,68,5.3,6.9,63,0.00,OVC,,0.01,WeatherDisplay:10.37,2013-07-10 01:41:00,
2013-07-09 19:46:00,68.5,55.8,30.08,East,90,1.2,4.6,64,0.00,OVC,,0.01,WeatherDisplay:10.37,2013-07-10 01:46:00,
2013-07-09 19:51:00,68.4,55.7,30.08,ENE,68,6.7,8.1,64,0.00,OVC,,0.01,WeatherDisplay:10.37,2013-07-10 01:51:00,
2013-07-09 19:56:00,68.4,55.7,30.08,NE,45,3.3,3.5,64,0.00,OVC,,0.01,WeatherDisplay:10.37,2013-07-10 01:56:00,
2013-07-09 20:01:00,68.4,55.7,30.08,NNE,22,4.3,5.3,64,0.00,OVC,,0.01,WeatherDisplay:10.37,2013-07-10 02:01:00,
2013-07-09 20:06:00,68.2,55.6,30.08,NNE,22,3.6,5.8,64,0.00,OVC,,0.01,WeatherDisplay:10.37,2013-07-10 02:06:00,
2013-07-09 20:11:00,68.0,55.4,30.08,NE,45,2.8,3.5,64,0.00,CLR,,0.01,WeatherDisplay:10.37,2013-07-10 02:11:00,
2013-07-09 20:16:00,67.8,55.6,30.08,WNW,292,3.3,4.6,65,0.00,CLR,,0.01,WeatherDisplay:10.37,2013-07-10 02:16:00,
2013-07-09 20:21:00,67.6,55.8,30.08,East,90,1.5,2.7,66,0.00,CLR,,0.01,WeatherDisplay:10.37,2013-07-10 02:21:00,
2013-07-09 20:26:00,67.5,55.7,30.09,NNE,22,3.6,5.8,66,0.00,CLR,,0.01,WeatherDisplay:10.37,2013-07-10 02:26:00,
2013-07-09 20:31:00,67.3,55.5,30.09,ENE,68,2.0,2.3,66,0.00,CLR,,0.01,WeatherDisplay:10.37,2013-07-10 02:31:00,
2013-07-09 20:36:00,66.9,55.2,30.09,NE,45,1.1,3.5,66,0.00,CLR,,0.01,WeatherDisplay:10.37,2013-07-10 02:36:00,
2013-07-09 20:41:00,66.7,55.0,30.09,ENE,68,2.1,3.7,66,0.00,CLR,,0.01,WeatherDisplay:10.37,2013-07-10 02:41:00,
2013-07-09 20:46:00,66.4,55.1,30.09,NE,45,2.3,2.7,67,0.00,CLR,,0.01,WeatherDisplay:10.37,2013-07-10 02:46:00,
2013-07-09 20:51:00,66.2,54.9,30.09,NE,45,1.4,3.5,67,0.00,CLR,,0.01,WeatherDisplay:10.37,2013-07-10 02:51:00,
2013-07-09 20:56:00,66.0,55.1,30.09,NNE,22,2.5,3.5,68,0.00,CLR,,0.01,WeatherDisplay:10.37,2013-07-10 02:56:00,
2013-07-09 21:01:00,65.7,55.2,30.09,East,90,1.3,1.3,69,0.00,CLR,,0.01,WeatherDisplay:10.37,2013-07-10 03:01:00,
2013-07-09 21:06:00,65.5,55.1,30.09,East,90,1.5,1.5,69,0.00,CLR,,0.01,WeatherDisplay:10.37,2013-07-10 03:06:00,
2013-07-09 21:12:00,65.1,55.1,30.09,ESE,112,2.8,2.8,70,0.00,CLR,,0.01,WeatherDisplay:10.37,2013-07-10 03:12:00,
2013-07-09 21:17:00,65.1,54.7,30.09,NNW,338,1.6,3.5,69,0.00,CLR,,0.01,WeatherDisplay:10.37,2013-07-10 03:17:00,
2013-07-09 21:22:00,64.8,54.8,30.09,ESE,112,1.2,2.3,70,0.00,CLR,,0.01,WeatherDisplay:10.37,2013-07-10 03:22:00,
2013-07-09 21:27:00,64.6,54.6,30.10,ENE,68,1.5,2.7,70,0.00,CLR,,0.01,WeatherDisplay:10.37,2013-07-10 03:27:00,
2013-07-09 21:32:00,64.2,55.0,30.10,NE,45,1.5,1.5,72,0.00,CLR,,0.01,WeatherDisplay:10.37,2013-07-10 03:32:00,
2013-07-09 21:37:00,63.9,55.1,30.10,ENE,68,1.9,2.3,73,0.00,CLR,,0.01,WeatherDisplay:10.37,2013-07-10 03:37:00,
2013-07-09 21:42:00,63.5,55.1,30.10,SE,135,2.5,2.7,74,0.00,CLR,,0.01,WeatherDisplay:10.37,2013-07-10 03:42:00,
2013-07-09 21:47:00,63.0,54.9,30.10,ESE,112,1.8,2.3,75,0.00,CLR,,0.01,WeatherDisplay:10.37,2013-07-10 03:47:00,
2013-07-09 21:52:00,62.6,55.3,30.10,East,90,1.7,2.3,77,0.00,CLR,,0.01,WeatherDisplay:10.37,2013-07-10 03:52:00,
2013-07-09 21:57:00,62.2,55.3,30.10,ESE,112,2.3,2.3,78,0.00,CLR,,0.01,WeatherDisplay:10.37,2013-07-10 03:57:00,
2013-07-09 22:01:00,62.1,55.9,30.10,East,90,0.2,1.7,80,0.00,CLR,,0.01,WeatherDisplay:10.37,2013-07-10 04:01:00,
2013-07-09 22:02:00,62.1,55.9,30.10,East,90,1.7,1.7,80,0.00,CLR,,0.01,WeatherDisplay:10.37,2013-07-10 04:02:00,
2013-07-09 22:07:00,61.9,56.0,30.10,ESE,112,1.7,1.7,81,0.00,CLR,,0.01,WeatherDisplay:10.37,2013-07-10 04:07:00,
2013-07-09 22:12:00,61.7,56.1,30.10,ESE,112,1.4,1.4,82,0.00,CLR,,0.01,WeatherDisplay:10.37,2013-07-10 04:12:00,
2013-07-09 22:17:00,61.3,55.8,30.10,ESE,112,2.2,3.2,82,0.00,CLR,,0.01,WeatherDisplay:10.37,2013-07-10 04:17:00,
2013-07-09 22:22:00,61.2,55.3,30.10,ESE,112,1.1,1.7,81,0.00,CLR,,0.01,WeatherDisplay:10.37,2013-07-10 04:22:00,
2013-07-09 22:27:00,61.0,55.1,30.10,NNW,338,0.3,1.1,81,0.00,CLR,,0.01,WeatherDisplay:10.37,2013-07-10 04:27:00,
2013-07-09 22:32:00,60.8,54.9,30.10,ESE,112,0.0,0.0,81,0.00,CLR,,0.01,WeatherDisplay:10.37,2013-07-10 04:32:00,
2013-07-09 22:37:00,60.8,54.9,30.10,SSE,158,0.5,1.7,81,0.00,CLR,,0.01,WeatherDisplay:10.37,2013-07-10 04:37:00,
2013-07-09 22:42:00,60.4,54.5,30.10,SSE,158,2.0,2.3,81,0.00,CLR,,0.01,WeatherDisplay:10.37,2013-07-10 04:42:00,
2013-07-09 22:47:00,60.3,54.8,30.10,SSE,158,3.0,3.5,82,0.00,CLR,,0.01,WeatherDisplay:10.37,2013-07-10 04:47:00,
2013-07-09 22:52:00,59.9,54.4,30.10,East,90,0.0,0.0,82,0.00,CLR,,0.01,WeatherDisplay:10.37,2013-07-10 04:52:00,
2013-07-09 22:57:00,59.5,54.3,30.10,SSW,202,0.1,1.1,83,0.00,CLR,,0.01,WeatherDisplay:10.37,2013-07-10 04:57:00,
2013-07-09 23:02:00,59.4,54.6,30.10,SSW,202,0.0,0.0,84,0.00,CLR,,0.01,WeatherDisplay:10.37,2013-07-10 05:02:00,
2013-07-09 23:07:00,59.2,54.4,30.10,South,180,1.7,1.7,84,0.00,CLR,,0.01,WeatherDisplay:10.37,2013-07-10 05:07:00,
2013-07-09 23:12:00,59.0,54.2,30.10,SSE,158,3.1,3.5,84,0.00,CLR,,0.01,WeatherDisplay:10.37,2013-07-10 05:12:00,
2013-07-09 23:17:00,58.8,54.0,30.11,SE,135,0.1,1.7,84,0.00,CLR,,0.01,WeatherDisplay:10.37,2013-07-10 05:17:00,
2013-07-09 23:22:00,59.2,54.4,30.11,SE,135,1.1,1.1,84,0.00,CLR,,0.01,WeatherDisplay:10.37,2013-07-10 05:22:00,
2013-07-09 23:27:00,58.6,53.5,30.11,SW,225,2.6,3.5,83,0.00,CLR,,0.01,WeatherDisplay:10.37,2013-07-10 05:27:00,
2013-07-09 23:32:00,58.3,53.5,30.11,SE,135,2.0,2.3,84,0.00,CLR,,0.01,WeatherDisplay:10.37,2013-07-10 05:32:00,
2013-07-09 23:37:00,58.1,53.3,30.11,SSE,158,0.4,1.1,84,0.00,CLR,,0.01,WeatherDisplay:10.37,2013-07-10 05:37:00,
2013-07-09 23:42:00,57.9,53.1,30.11,SSE,158,2.3,2.3,84,0.00,CLR,,0.01,WeatherDisplay:10.37,2013-07-10 05:42:00,
2013-07-09 23:47:00,57.7,52.9,30.11,SSE,158,0.4,1.1,84,0.00,CLR,,0.01,WeatherDisplay:10.37,2013-07-10 05:47:00,
2013-07-09 23:52:00,57.4,52.9,30.11,SW,225,1.3,1.3,85,0.00,CLR,,0.01,WeatherDisplay:10.37,2013-07-10 05:52:00,
2013-07-09 23:57:00,57.2,52.7,30.11,SSW,202,1.1,2.7,85,0.00,CLR,,0.01,WeatherDisplay:10.37,2013-07-10 05:57:00,